Norfolk, NE

3:28 AM CST on February 11, 2016 (GMT -0600)
Stefan Memorial

Weather History for KOFK - November, 2012

Change the Weather History Date:

Saturday, November 10, 2012

  Actual Average Record
Temperature  
Mean Temperature 47 °F 39 °F  
Max Temperature 64 °F 51 °F 81 °F (1912)
Min Temperature 29 °F 28 °F -9 °F (1986)
Degree Days  
Heating Degree Days 18 26  
Month to date heating degree days 221 231  
Since 1 July heating degree days 863 816  
Cooling Degree Days 0 0  
Month to date cooling degree days 0 0  
Year to date cooling degree days 1373 915  
Moisture  
Dew Point 36 °F    
Average Humidity 74    
Maximum Humidity 100    
Minimum Humidity 48    
Precipitation  
Precipitation 0.39 in 0.05 in 0.39 in (2008)
Month to date precipitation 0.43 0.49  
Year to date precipitation 13.37 25.78  
Snow  
Snow T in 0.10 in - ()
Month to date snowfall T 0.9  
Since 1 July snowfall T 1.7  
Snow Depth 0.00 in    
Sea Level Pressure  
Sea Level Pressure 29.57 in    
Wind  
Wind Speed 9 mph (WNW)    
Max Wind Speed 30 mph    
Max Gust Speed 37 mph    
Visibility 5 miles    
Events Fog , Rain , Thunderstorm    
T = Trace of Precipitation, MM = Missing Value Source: NWS Daily Summary

Daily Weather History Graph

Daily Weather History Graph

Search for Another Location

Airport or City:

Trip Planner

Search our weather history database for the weather conditions in past years. The results will help you decide how hot, cold, wet, or windy it might be!

Date:

Astronomy

Nov. 10, 2012 Rise Set
Actual Time 7:14 AM CST 5:12 PM CST
Civil Twilight 6:44 AM CST 5:42 PM CST
Nautical Twilight 6:10 AM CST 6:15 PM CST
Astronomical Twilight 5:38 AM CST 6:48 PM CST
Moon 3:17 AM CST (11/10) 3:03 PM CST (11/10)
Length of Visible Light 10h 58m
Length of Day
9h 58m
Waning Crescent, 14% of the Moon is Illuminated
Nov 10
Waning Crescent
Nov 13
New
Nov 20
First Quarter
Nov 28
Full
Dec 6
Last Quarter

Hourly Weather History & Observations

Time (CST) Temp. Windchill Dew Point Humidity Pressure Visibility Wind Dir Wind Speed Gust Speed Precip Events Conditions
12:56 AM 37.0 °F 32.4 °F 35.1 °F 93% 29.60 in 5.0 mi West 5.8 mph - N/A   Clear
1:56 AM 35.1 °F 32.2 °F 34.0 °F 96% 29.58 in 5.0 mi WSW 3.5 mph - N/A   Clear
2:56 AM 34.0 °F 31.0 °F 33.1 °F 96% 29.57 in 3.0 mi WNW 3.5 mph - N/A   Clear
3:12 AM 33.8 °F - 32.0 °F 93% 29.55 in 4.0 mi Calm Calm - N/A   Scattered Clouds
3:20 AM 35.6 °F - 33.8 °F 93% 29.55 in 4.0 mi Calm Calm - N/A   Mostly Cloudy
3:56 AM 35.1 °F - 33.1 °F 92% 29.56 in 4.0 mi Calm Calm - N/A   Overcast
4:31 AM 35.6 °F 32.8 °F 33.8 °F 93% 29.53 in 1.8 mi West 3.5 mph - N/A   Overcast
4:56 AM 36.0 °F - 35.1 °F 97% 29.55 in 1.5 mi Calm Calm - N/A   Overcast
5:12 AM 35.6 °F 32.8 °F 33.8 °F 93% 29.54 in 0.5 mi West 3.5 mph - N/A Fog Fog
5:30 AM 35.6 °F 31.7 °F 35.6 °F 100% 29.54 in 0.2 mi West 4.6 mph - N/A Fog Fog
5:40 AM 35.6 °F - 33.8 °F 93% 29.54 in 1.0 mi Calm Calm - N/A   Overcast
5:44 AM 35.6 °F - 33.8 °F 93% 29.54 in 3.0 mi Calm Calm - N/A   Overcast
5:56 AM 35.1 °F 30.1 °F 33.1 °F 92% 29.57 in 1.8 mi West 5.8 mph - N/A   Overcast
6:08 AM 33.8 °F 28.6 °F 33.8 °F 100% 29.55 in 3.0 mi WNW 5.8 mph - N/A   Overcast
6:25 AM 33.8 °F 26.4 °F 30.2 °F 87% 29.55 in 1.8 mi WNW 9.2 mph - N/A   Overcast
6:37 AM 32.0 °F 26.4 °F 32.0 °F 100% 29.55 in 0.5 mi West 5.8 mph - N/A Fog Fog
6:46 AM 33.8 °F 27.7 °F 32.0 °F 93% 29.55 in 0.2 mi West 6.9 mph - N/A Fog Fog
6:56 AM 33.1 °F 30.0 °F 32.0 °F 96% 29.60 in 0.2 mi West 3.5 mph - N/A Fog Fog
7:56 AM 35.1 °F 32.2 °F 35.1 °F 100% 29.61 in 0.2 mi SSW 3.5 mph - N/A Fog Fog
8:56 AM 39.9 °F 35.1 °F 37.9 °F 93% 29.60 in 0.2 mi WSW 6.9 mph - N/A Fog Fog
9:03 AM 39.2 °F 34.2 °F 39.2 °F 100% 29.58 in 0.5 mi WSW 6.9 mph - N/A Fog Fog
9:29 AM 41.0 °F 36.4 °F 39.2 °F 93% 29.59 in 1.2 mi WSW 6.9 mph - N/A   Overcast
9:45 AM 42.8 °F 37.0 °F 39.2 °F 87% 29.59 in 2.5 mi West 10.4 mph - N/A   Overcast
9:56 AM 42.1 °F 36.6 °F 39.9 °F 92% 29.60 in 3.0 mi West 9.2 mph - N/A   Overcast
10:22 AM 44.6 °F 40.7 °F 41.0 °F 87% 29.59 in 6.0 mi SW 6.9 mph - N/A   Overcast
10:49 AM 48.2 °F - 41.0 °F 76% 29.58 in 8.0 mi West 9.2 mph - N/A   Partly Cloudy
10:56 AM 48.9 °F - 41.0 °F 74% 29.59 in 9.0 mi West 8.1 mph - N/A   Partly Cloudy
11:56 AM 52.0 °F - 41.0 °F 66% 29.57 in 10.0 mi SW 3.5 mph - N/A   Clear
12:56 PM 57.0 °F - 41.0 °F 55% 29.53 in 10.0 mi Variable 3.5 mph - N/A   Clear
1:56 PM 61.0 °F - 41.0 °F 48% 29.49 in 10.0 mi WSW 3.5 mph - N/A   Clear
2:56 PM 63.0 °F - 42.1 °F 46% 29.45 in 10.0 mi ENE 5.8 mph - N/A   Partly Cloudy
3:56 PM 60.1 °F - 42.1 °F 51% 29.47 in 10.0 mi North 8.1 mph - N/A   Scattered Clouds
4:56 PM 55.0 °F - 45.0 °F 69% 29.45 in 10.0 mi NE 6.9 mph - 0.01 in Rain Light Rain
5:41 PM 51.8 °F - 44.6 °F 76% 29.47 in 10.0 mi WNW 15.0 mph 19.6 mph 0.00 in Thunderstorm Mostly Cloudy
5:56 PM 48.0 °F - 41.0 °F 77% 29.50 in 6.0 mi NW 13.8 mph 35.7 mph 0.04 in Rain , Thunderstorm Light Thunderstorms and Rain
6:02 PM 46.4 °F 37.9 °F 41.0 °F 81% 29.50 in 9.0 mi NW 25.3 mph 32.2 mph 0.00 in Rain , Thunderstorm Light Rain
6:32 PM 42.8 °F 35.4 °F 41.0 °F 93% 29.48 in 1.8 mi North 15.0 mph 20.7 mph 0.09 in Rain , Thunderstorm Heavy Thunderstorms and Rain
6:41 PM 42.8 °F 38.0 °F 41.0 °F 93% 29.49 in 2.0 mi North 8.1 mph 20.7 mph 0.22 in Rain , Thunderstorm Heavy Thunderstorms and Rain
6:49 PM 44.6 °F 39.2 °F 41.0 °F 87% 29.51 in 5.0 mi NNW 10.4 mph - 0.23 in Rain Light Rain
6:56 PM 43.0 °F 36.4 °F 41.0 °F 93% 29.54 in 4.0 mi NNW 12.7 mph - 0.25 in Rain , Thunderstorm Heavy Rain
7:11 PM 44.6 °F 38.4 °F 41.0 °F 87% 29.55 in 6.0 mi NNW 12.7 mph - 0.04 in Rain , Thunderstorm Light Thunderstorms and Rain
7:47 PM 42.8 °F 33.8 °F 39.2 °F 87% 29.53 in 10.0 mi NW 21.9 mph - 0.09 in   Overcast
7:56 PM 42.1 °F 31.7 °F 39.0 °F 89% 29.56 in 10.0 mi NW 27.6 mph 34.5 mph 0.09 in   Overcast
8:36 PM 39.2 °F 30.2 °F 35.6 °F 87% 29.61 in 10.0 mi NNW 17.3 mph 25.3 mph N/A   Overcast
8:56 PM 39.0 °F 28.3 °F 36.0 °F 89% 29.65 in 10.0 mi NW 24.2 mph 29.9 mph N/A   Overcast
9:15 PM 37.4 °F 27.2 °F 32.0 °F 81% 29.62 in 10.0 mi NNW 19.6 mph 32.2 mph N/A   Overcast
9:56 PM 35.1 °F 23.0 °F 30.9 °F 85% 29.69 in 10.0 mi NW 24.2 mph 29.9 mph N/A   Overcast
10:56 PM 30.9 °F 18.4 °F 27.0 °F 85% 29.72 in 10.0 mi NNW 20.7 mph - 0.00 in   Overcast
11:41 PM 28.4 °F 14.4 °F 23.0 °F 80% 29.73 in 10.0 mi NNW 23.0 mph 36.8 mph N/A   Overcast
11:56 PM 28.9 °F 15.1 °F 24.1 °F 82% 29.78 in 10.0 mi NNW 23.0 mph 29.9 mph N/A   Overcast